ROMMA est une association bénévole à but non lucratif. Votre soutien est indispensable : ADHERER à ROMMA ou FAIRE un DON

Val-d'Isère - (73, Savoie)

Haute-Maurienne (1850 m)   Longitude: 6° 58' 52'' E   Latitude: 45° 26' 53'' N Station partenaire n°93
 

Détail journalier du     <<     >>

Température Precipitation Humidité Vent Dir Rafale Dir. rafale Ensol.
Heure (°C) (mm) (%) (km/h) (km/h) (min)
01:00 -3.10619E18ESE0
02:00 -3.80639E15E0
03:00 -4.20636E16ESE0
04:00 -4.70616ENE15E0
05:00 -5.60642ENE11ENE0
06:00 -5.60596E16E0
07:00 -5.90605E13NO0
08:00 -5.906112E21E0
09:00 -4.80628ESE18ESE60
10:00 -3.60596E11E60
11:00 -2.70567ESE15E60
12:00 -1.60458E16ESE60
13:00 -0.50418E16SE60
14:00 -0.303611E23ESE60
15:00 0.703410ESE21ESE60
16:00 1.003411ESE21ESE60
17:00 2.003711ESE23S60
18:00 0.40428SE19SSE30
19:00 -0.60527SSO24OSO0
20:00 -1.20567OSO23O0
21:00 -1.50643SSE18OSO0
22:00 -2.80686E15S0
23:00 -3.30686ENE13ESE0
minuit -4.40722E11E0

Graphique du 14-04-2019

 

Serveur OMMA